AD9CI-15 Weather Reports


time (UTC)temp
C
wind
direction
speed
KPH
gust
KPH
rain 1hr
cm
rain 24hr
cm
rain mn
cm
humidity
%
barometer
mb
20260906140454 21 0.0 0.0 0.00 0.00 0.00 75 1020.8
20260906140422 21 0.0 0.0 0.00 0.00 0.00 75 1020.8
20260906133223 21 0.0 0.0 0.00 0.00 0.00 78 1020.7
20260906130703 20 0.0 0.0 0.00 0.00 0.00 79 1020.3
20260906130506 20 0.0 0.0 0.00 0.00 0.00 79 1020.3
20260906130422 20 0.0 0.0 0.00 0.00 0.00 79 1020.3
20260906123222 19 0.0 0.0 0.00 0.00 0.00 81 1020.1
20260906120457 19 0.0 0.0 0.00 0.00 0.00 81 1019.5
20260906120423 19 0.0 0.0 0.00 0.00 0.00 81 1019.5
20260906113222 19 0.0 0.0 0.00 0.00 0.00 82 1019.2
20260906110457 18 0.0 0.0 0.00 0.00 0.00 84 1019.0
20260906110422 18 0.0 0.0 0.00 0.00 0.00 84 1019.0
20260906103518 19 0.0 0.0 0.00 0.00 0.00 84 1019.0
20260906103222 19 0.0 0.0 0.00 0.00 0.00 84 1019.0
20260906100510 19 0.0 0.0 0.00 0.00 0.00 85 1018.7
20260906100423 19 0.0 0.0 0.00 0.00 0.00 85 1018.7
20260906093443 19 0.0 0.0 0.00 0.00 0.00 84 1018.7
20260906093259 19 0.0 0.0 0.00 0.00 0.00 84 1018.7
20260906093222 19 0.0 0.0 0.00 0.00 0.00 84 1018.7
20260906090727 18 0.0 0.0 0.00 0.00 0.00 83 1018.7
20260906090512 18 0.0 0.0 0.00 0.00 0.00 83 1018.7
20260906090422 18 0.0 0.0 0.00 0.00 0.00 83 1018.7
20260906083223 19 0.0 0.0 0.00 0.00 0.00 83 1018.7
20260906080652 19 0.0 0.0 0.00 0.00 0.00 83 1018.6
20260906080504 19 0.0 0.0 0.00 0.00 0.00 83 1018.6
20260906080422 19 0.0 0.0 0.00 0.00 0.00 83 1018.6
20260906073222 19 0.0 0.0 0.00 0.00 0.00 83 1018.1
20260906070456 19 0.0 0.0 0.00 0.00 0.00 84 1018.2
20260906070423 19 0.0 0.0 0.00 0.00 0.00 84 1018.2
20260906063533 19 0.0 0.0 0.00 0.00 0.00 84 1018.4
20260906063308 19 0.0 0.0 0.00 0.00 0.00 84 1018.4
20260906063222 19 0.0 0.0 0.00 0.00 0.00 84 1018.4
20260906060737 20 0.0 0.0 0.00 0.00 0.00 84 1017.9
20260906060422 20 0.0 0.0 0.00 0.00 0.00 84 1017.9
20260906053319 20 0.0 0.0 0.00 0.00 0.00 84 1018.1
20260906053223 20 0.0 0.0 0.00 0.00 0.00 84 1018.1
20260906050502 21 0.0 0.0 0.00 0.00 0.00 84 1017.9
20260906050422 21 0.0 0.0 0.00 0.00 0.00 84 1017.9
20260906043253 20 0.0 0.0 0.00 0.00 0.00 84 1017.8
20260906043222 20 0.0 0.0 0.00 0.00 0.00 84 1017.8
20260906040459 20 0.0 0.0 0.00 0.00 0.00 85 1017.7
20260906040422 20 0.0 0.0 0.00 0.00 0.00 85 1017.7
20260906033253 19 0.0 0.0 0.00 0.00 0.00 85 1017.7
20260906033222 19 0.0 0.0 0.00 0.00 0.00 85 1017.7
20260906030740 20 0.0 0.0 0.00 0.00 0.00 83 1017.8
20260906030455 20 0.0 0.0 0.00 0.00 0.00 83 1017.8
20260906030422 20 0.0 0.0 0.00 0.00 0.00 83 1017.8
20260906023222 20 0.0 0.0 0.00 0.00 0.00 83 1017.7
20260906020423 20 0.0 0.0 0.00 0.00 0.00 82 1017.6
20260906013222 20 0.0 0.0 0.00 0.00 0.00 81 1017.7
20260906010513 20 0.0 0.0 0.00 0.00 0.00 82 1017.4
20260906010422 20 0.0 0.0 0.00 0.00 0.00 82 1017.4
20260906003222 20 0.0 0.0 0.00 0.00 0.00 82 1017.3
20260906000422 21 0.0 0.0 0.00 0.00 0.00 83 1017.4
20260905233258 21 0.0 0.0 0.00 0.00 0.00 83 1017.5
20260905233222 21 0.0 0.0 0.00 0.00 0.00 83 1017.5
20260905230515 21 0.0 0.0 0.00 0.00 0.00 84 1017.5
20260905230422 21 0.0 0.0 0.00 0.00 0.00 84 1017.5
20260905223301 21 0.0 0.0 0.00 0.00 0.00 84 1017.3
20260905223222 21 0.0 0.0 0.00 0.00 0.00 84 1017.3
20260905220555 21 0.0 0.0 0.00 0.00 0.00 83 1017.1
20260905220500 21 0.0 0.0 0.00 0.00 0.00 83 1017.1
20260905220422 21 0.0 0.0 0.00 0.00 0.00 83 1017.1
20260905213348 21 0.0 0.0 0.00 0.00 0.00 82 1016.9
20260905213223 21 0.0 0.0 0.00 0.00 0.00 82 1016.9
20260905210855 22 0.0 0.0 0.00 0.00 0.00 82 1016.8
20260905210513 22 0.0 0.0 0.00 0.00 0.00 82 1016.8
20260905210422 22 0.0 0.0 0.00 0.00 0.00 82 1016.8
20260905203303 22 0.0 0.0 0.00 0.00 0.00 83 1016.8
20260905203222 22 0.0 0.0 0.00 0.00 0.00 83 1016.8
20260905200914 22 0.0 0.0 0.00 0.00 0.00 82 1016.8
20260905200514 22 0.0 0.0 0.00 0.00 0.00 82 1016.8
20260905200423 22 0.0 0.0 0.00 0.00 0.00 82 1016.8
20260905193547 22 0.0 0.0 0.00 0.00 0.00 82 1016.7
20260905193344 22 0.0 0.0 0.00 0.00 0.00 82 1016.7
20260905193222 22 0.0 0.0 0.00 0.00 0.00 82 1016.7
20260905190620 22 0.0 0.0 0.00 0.00 0.00 84 1016.6
20260905190548 22 0.0 0.0 0.00 0.00 0.00 84 1016.6
20260905190422 22 0.0 0.0 0.00 0.00 0.00 84 1016.6
20260905183731 22 0.0 0.0 0.00 0.00 0.00 85 1016.7
20260905183328 22 0.0 0.0 0.00 0.00 0.00 85 1016.7
20260905183223 22 0.0 0.0 0.00 0.00 0.00 85 1016.7
20260905180703 22 0.0 0.0 0.00 0.00 0.00 84 1016.5
20260905180630 22 0.0 0.0 0.00 0.00 0.00 84 1016.5
20260905180422 22 0.0 0.0 0.00 0.00 0.00 84 1016.5
20260905173329 23 0.0 0.0 0.00 0.00 0.00 84 1016.5
20260905173222 23 0.0 0.0 0.00 0.00 0.00 84 1016.5
20260905171020 23 0.0 0.0 0.00 0.00 0.00 85 1016.6
20260905170454 23 0.0 0.0 0.00 0.00 0.00 85 1016.6
20260905170423 23 0.0 0.0 0.00 0.00 0.00 85 1016.6
20260905163800 23 0.0 0.0 0.00 0.00 0.00 86 1016.5
20260905163317 23 0.0 0.0 0.00 0.00 0.00 86 1016.5
20260905163222 23 0.0 0.0 0.00 0.00 0.00 86 1016.5
20260905161350 23 0.0 0.0 0.00 0.00 0.00 87 1016.5
20260905160613 23 0.0 0.0 0.00 0.00 0.00 87 1016.5
20260905160537 23 0.0 0.0 0.00 0.00 0.00 87 1016.5
20260905160422 23 0.0 0.0 0.00 0.00 0.00 87 1016.5
20260905153412 22 0.0 0.0 0.00 0.00 0.00 88 1016.5
20260905153332 22 0.0 0.0 0.00 0.00 0.00 88 1016.5
20260905153223 22 0.0 0.0 0.00 0.00 0.00 88 1016.5
20260905151111 21 0.0 0.0 0.00 0.00 0.00 89 1016.2
20260905150556 21 0.0 0.0 0.00 0.00 0.00 89 1016.2
20260905150422 21 0.0 0.0 0.00 0.00 0.00 89 1016.2
20260905143709 21 0.0 0.0 0.00 0.00 0.00 88 1015.8
20260905143345 21 0.0 0.0 0.00 0.00 0.00 88 1015.8
20260905143222 21 0.0 0.0 0.00 0.00 0.00 88 1015.8
20260905140703 21 0.0 0.0 0.00 0.00 0.00 89 1015.5